This demonstration page uses our WeatherBlox Daily Observations layout. Learn more.

Left ArrowRight Arrow

39.08367, -84.50855

Hourly Observations for March 14, 2016

Temp ( °F °C ) Dew Point ( °F °C ) Humidity (%) Winds ( mph kmh ) Pressure ( in mb ) Visibility ( mi km ) Precip ( " mm )
12:53 am 00:53 Mostly Cloudy with Fog 55 12.8 55 12.8 100 100 N N/A 29.75 1008 0.5 0.80467 N/A
1:06 am 01:06 Mostly Cloudy with Fog 54 12.2 54 12.2 100 100 N N/A 29.8 1009 0.25 0.402335 N/A
1:13 am 01:13 Mostly Cloudy with Fog 54 12.2 54 12.2 100 100 N N/A 29.8 1009 0.5 0.80467 N/A
1:19 am 01:19 Mostly Cloudy with Fog 54 12.2 54 12.2 100 100 N N/A 29.8 1009 0.25 0.402335 N/A
1:53 am 01:53 Mostly Cloudy with Fog 52 11.1 52 11.1 100 100 WSW 3 6 29.76 1008 0.25 0.402335 N/A
2:16 am 02:16 Mostly Cloudy with Fog 53 11.7 53 11.7 100 100 WSW 6 9 29.8 1009 0.5 0.80467 N/A
2:23 am 02:23 Partly Cloudy with Mist and Fog 53 11.7 53 11.7 100 100 SW 6 9 29.8 1009 2 3.21868 N/A
2:32 am 02:32 Mostly Clear with Mist and Fog 52 11 52 11 100 100 SW 6 9 29.8 1009 3 4.82802 N/A
2:39 am 02:39 Clear with Mist and Fog 52 11.1 52 11.1 100 100 WSW 5 7 29.8 1009 1.75 2.816345 N/A
2:44 am 02:44 Clear with Mist and Fog 54 12 54 12 100 100 SW 5 7 29.8 1009 3 4.82802 N/A
2:53 am 02:53 Clear with Mist and Fog 52 11.1 52 11.1 100 100 SW 6 9 29.77 1008 2.5 4.02335 N/A
3:15 am 03:15 Mostly Clear with Mist and Fog 53 11.7 53 11.7 100 100 WSW 3 6 29.8 1009 4 6.43736 N/A
3:29 am 03:29 Mostly Clear with Mist and Fog 52 11.1 52 11.1 100 100 WSW 5 7 29.8 1009 1.75 2.816345 N/A
3:36 am 03:36 Mostly Cloudy with Mist and Fog 52 11.1 52 11.1 100 100 WSW 3 6 29.8 1009 0.75 1.207005 N/A
3:48 am 03:48 Clear with Mist and Fog 50 10 50 10 100 100 N N/A 29.8 1009 0.75 1.207005 N/A
3:53 am 03:53 Mostly Clear with Mist and Fog 50 10 50 10 100 100 WSW 3 6 29.75 1008 0.75 1.207005 N/A
4:22 am 04:22 Mostly Cloudy with Fog 50 10 50 10 100 100 N 3 6 29.77 1008 0.25 0.402335 N/A
4:53 am 04:53 Mostly Cloudy with Fog 49 9.4 49 9.4 100 100 N N/A 29.75 1007 0.25 0.402335 N/A
5:51 am 05:51 Mostly Cloudy with Fog 50 10 50 10 100 100 N N/A 29.77 1008 0.25 0.402335 N/A
5:53 am 05:53 Mostly Cloudy with Fog 50 10 50 10 100 100 N N/A 29.75 1007 0.25 0.402335 N/A
6:01 am 06:01 Cloudy with Fog 50 10 50 10 100 100 N N/A 29.77 1008 0.25 0.402335 N/A
6:13 am 06:13 Cloudy with Fog 50 10 50 10 100 100 N N/A 29.77 1008 0.5 0.80467 N/A
6:25 am 06:25 Cloudy with Fog 49 9.4 49 9.4 100 100 N N/A 29.8 1009 0.25 0.402335 N/A
6:53 am 06:53 Mostly Cloudy with Fog 48 8.9 48 8.9 100 100 N N/A 29.75 1008 0.25 0.402335 N/A
7:32 am 07:32 Cloudy with Fog 48 9 48 9 100 100 N N/A 29.8 1009 0.5 0.80467 N/A
7:53 am 07:53 Cloudy with Fog 50 10 50 10 100 100 N N/A 29.76 1008 0.25 0.402335 N/A
8:12 am 08:12 Cloudy with Patchy Fog 50 10 50 10 100 100 N N/A 29.8 1009 0.5 0.80467 N/A
8:21 am 08:21 Cloudy with Patchy Fog 50 10 50 10 100 100 N N/A 29.8 1009 0.25 0.402335 N/A
8:29 am 08:29 Cloudy with Patchy Fog 51 10.6 51 10.6 100 100 N N/A 29.8 1009 0.5 0.80467 N/A
8:35 am 08:35 Cloudy 52 11.1 52 11.1 100 100 N N/A 29.8 1009 7 11.26538 N/A
8:53 am 08:53 Mostly Cloudy 54 12.2 54 12.2 100 100 N N/A 29.75 1008 7 11.26538 N/A
9:53 am 09:53 Mostly Sunny 60 15.6 59 15 96 96 VRB 3 6 29.73 1007 10 16.0934 N/A
10:53 am 10:53 Mostly Sunny 63 17.2 60 15.6 90 90 VRB 3 6 29.71 1006 10 16.0934 N/A
11:53 am 11:53 Cloudy with Rain 63 17.2 59 15 87 87 SSE 6 9 29.71 1006 3 4.82802 0.02 0.508
12:53 pm 12:53 Cloudy 64 17.8 60 15.6 87 87 S 8 13 29.69 1005 10 16.0934 N/A
1:53 pm 13:53 Mostly Sunny 66 18.9 57 13.9 73 73 SW 17 28 29.67 1005 10 16.0934 N/A
2:53 pm 14:53 Mostly Cloudy 69 20.6 56 13.3 63 63 SW 15 24 29.64 1004 10 16.0934 N/A
3:53 pm 15:53 Mostly Sunny 70 21.1 56 13.3 61 61 SW 10 17 29.62 1003 10 16.0934 N/A
4:53 pm 16:53 Sunny 68 20 54 12.2 61 61 WSW 12 19 29.63 1003 10 16.0934 N/A
5:53 pm 17:53 Partly Cloudy 68 20 53 11.7 59 59 WSW 13 20 29.63 1003 10 16.0934 N/A
6:53 pm 18:53 Mostly Sunny 65 18.3 54 12.2 68 68 WNW 10 17 29.65 1004 10 16.0934 N/A
7:53 pm 19:53 Cloudy 64 17.8 53 11.7 68 68 WNW 6 9 29.68 1005 10 16.0934 N/A
8:53 pm 20:53 Cloudy 62 16.7 55 12.8 78 78 NW 6 9 29.7 1006 10 16.0934 N/A
9:53 pm 21:53 Cloudy 62 16.7 54 12.2 75 75 W 6 9 29.73 1007 10 16.0934 N/A
10:53 pm 22:53 Cloudy 60 15.6 54 12.2 80 80 W 5 7 29.75 1008 10 16.0934 N/A
11:53 pm 23:53 Cloudy 59 15 54 12.2 83 83 W 5 7 29.76 1008 10 16.0934 N/A

Powered by AerisWeather